Location: Chuathbaluk
(61.5726°N, 159.2454°W)
Time: 15:32:38
(UTC+00:00)

ZACube-1 - Pass Details

Date: 17 January 2021
Orbit: 583 x 666 km, 97.6° (Epoch: 04 March)

Event Time Altitude Azimuth Distance (km) Brightness Sun altitude
Rises 13:53:51 0° 25° (NNE) 3,022 ? -38.0°
Maximum altitude 13:59:05 10° 76° (ENE) 2,105 ? -37.4°
Drops below altitude 10° 13:59:16 10° 78° (ENE) 2,106 ? -37.4°
Sets 14:04:17 0° 126° (SE) 3,000 ? -36.9°
